FW5236 Weather Reports


time (UTC)temp
F
wind
direction
speed
knots
gust
knots
rain 1hr
in
rain 24hr
in
rain mn
in
humidity
%
barometer
mb
20260904100029 49 226 1.7 2.6 0.00 0.00 0.00 88 1013.9
20260904094531 49 224 1.7 3.5 0.00 0.00 0.00 88 1013.9
20260904093029 48 225 0.9 2.6 0.00 0.00 0.00 88 1013.8
20260904091608 49 228 0.9 1.7 0.00 0.00 0.00 87 1013.7
20260904090030 49 226 0.9 2.6 0.00 0.00 0.00 86 1013.8
20260904083030 49 232 0.9 2.6 0.00 0.00 0.00 86 1013.6
20260904081530 49 231 1.7 3.5 0.00 0.00 0.00 86 1013.6
20260904080032 49 236 0.9 3.5 0.00 0.00 0.00 86 1013.7
20260904074606 49 265 0.9 1.7 0.00 0.00 0.00 86 1013.5
20260904073030 49 242 0.9 2.6 0.00 0.00 0.00 85 1013.5
20260904071531 49 284 0.9 2.6 0.00 0.00 0.00 86 1013.5
20260904070029 49 277 0.9 3.5 0.00 0.00 0.00 86 1013.4
20260904063031 0 0 0.0 0.0 0.00 0.00 0.00 100
20260904060030 53 292 1.7 1.7 0.00 0.00 0.00 79 1013.2
20260904054532 53 292 0.9 2.6 0.00 0.00 0.00 79 1013.2
20260904053031 53 317 0.9 1.7 0.00 0.00 0.00 79 1013.3
20260904051532 0 0 0.0 0.0 0.00 0.00 0.00 100
20260904050029 0 0 0.0 0.0 0.00 0.00 0.00 100
20260904044529 0 0 0.0 0.0 0.00 0.00 0.00 100
20260904043032 0 0 0.0 0.0 0.00 0.00 0.00 100
20260904040029 53 294 0.9 2.6 0.00 0.01 0.00 82 1013.3
20260904034533 53 292 0.9 3.5 0.00 0.03 0.00 83 1013.2
20260904033029 54 312 0.9 0.9 0.00 0.06 0.00 84 1012.9
20260904031529 0 0 0.0 0.0 0.00 0.16 0.00 100
20260904030145 55 1 0.9 2.6 0.00 0.32 0.00 80 1012.6
20260904024531 0 0 0.0 0.0 0.00 0.32 0.00 100
20260904021529 55 357 0.9 3.5 0.00 0.32 0.00 78 1012.6
20260904014539 56 1 0.9 3.5 0.00 0.32 0.00 77 1012.3
20260904013031 56 36 0.9 4.3 0.00 0.32 0.00 75 1012.0
20260904004531 58 28 1.7 7.0 0.00 0.32 0.00 70 1012.1
20260904003031 59 22 1.7 6.1 0.00 0.32 0.00 67 1012.0
20260904001529 61 37 1.7 8.7 0.00 0.32 0.00 63 1011.8
20260904000032 63 34 2.6 8.7 0.00 0.32 0.00 57 1011.7
20260903233030 67 49 0.9 5.2 0.00 0.32 0.00 48 1011.6
20260903231531 68 52 0.0 2.6 0.00 0.32 0.00 47 1011.7
20260903230108 69 38 0.0 0.9 0.00 0.32 0.00 46 1011.8
20260903224646 69 15 0.0 0.9 0.00 0.32 0.00 44 1011.9
20260903223030 0 0 0.0 0.0 0.00 0.32 0.00 100
20260903221529 0 0 0.0 0.0 0.00 0.34 0.00 100
20260903220107 68 346 0.0 0.0 0.00 0.34 0.00 47 1012.1
20260903214530 0 0 0.0 0.0 0.00 0.34 0.00 100
20260903211532 68 32 0.0 3.5 0.00 0.34 0.00 46 1012.0
20260903210030 68 294 2.6 4.3 0.00 0.34 0.00 42 1012.2
20260903204530 68 237 3.5 7.0 0.00 0.34 0.00 42 1012.3
20260903203031 70 288 2.6 7.0 0.00 0.34 0.00 42 1012.4
20260903201529 71 65 0.0 0.9 0.00 0.34 0.00 50 1012.8
20260903193030 62 45 0.0 0.0 0.00 0.34 0.00 72 1014.0
20260903191531 62 45 0.0 0.0 0.00 0.34 0.00 73 1014.1
20260903190031 61 45 0.0 0.0 0.00 0.34 0.00 73 1014.1
20260903184607 60 45 0.0 0.0 0.00 0.34 0.00 75 1014.2
20260903183029 59 51 0.0 0.9 0.00 0.34 0.00 76 1014.2
20260903181534 59 57 0.0 0.0 0.00 0.34 0.00 78 1014.2
20260903180032 58 22 0.0 0.9 0.00 0.34 0.00 80 1014.1
20260903174528 57 14 0.0 0.9 0.00 0.34 0.00 80 1014.1
20260903173031 56 35 0.0 1.7 0.00 0.34 0.00 83 1014.1
20260903171532 55 34 0.0 1.7 0.00 0.34 0.00 83 1014.1
20260903170030 55 13 0.0 1.7 0.00 0.34 0.00 83 1014.3
20260903164529 54 23 0.0 2.6 0.00 0.34 0.00 83 1014.3
20260903163032 54 21 0.0 2.6 0.00 0.34 0.00 82 1014.2
20260903161531 55 22 0.0 2.6 0.00 0.34 0.00 82 1014.3
20260903154530 52 180 0.0 0.0 0.00 0.34 0.00 87 1014.2
20260903151604 49 180 0.0 0.9 0.00 0.34 0.00 90 1014.2
20260903150030 49 263 0.0 1.7 0.00 0.34 0.00 91 1014.2
20260903143031 46 345 0.0 0.9 0.00 0.34 0.00 92 1014.2
20260903141605 46 16 0.0 1.7 0.00 0.34 0.00 92 1014.1
20260903140032 46 225 0.9 2.6 0.00 0.34 0.00 92 1014.0
20260903134607 46 225 0.9 1.7 0.00 0.34 0.00 92 1013.9
20260903133031 45 225 0.9 2.6 0.00 0.34 0.00 93 1013.9
20260903131530 45 225 0.9 2.6 0.00 0.34 0.00 94 1013.9
20260903130030 44 225 0.0 1.7 0.00 0.34 0.00 93 1013.8
20260903124529 44 225 0.0 2.6 0.00 0.34 0.00 93 1013.8
20260903121529 44 236 0.9 3.5 0.00 0.34 0.00 93 1013.7
20260903120030 43 271 0.0 2.6 0.00 0.34 0.00 93 1013.7
20260903114607 43 235 0.0 0.9 0.00 0.34 0.00 93 1013.6
20260903113041 44 225 0.0 1.7 0.00 0.34 0.00 93 1013.6
20260903111531 44 225 0.0 1.7 0.00 0.34 0.00 92 1013.5
20260903104647 47 247 0.0 1.7 0.00 0.34 0.00 90 1013.3
20260903103028 47 303 0.0 3.5 0.00 0.34 0.00 90 1013.4
20260903101530 46 250 0.0 1.7 0.00 0.34 0.00 92 1013.3